Tracking 18945 objects as of 19-Jan-2018
HD Live streaming from Space Station
objects crossing your sky now

FENGYUN 1C DEB

Track FENGYUN 1C DEB now!
10-day predictions


NORAD ID: 30810
Int'l Code: 1999-025AUU
Perigee: 805.0 km
Apogee: 1,153.4 km
Inclination: 98.7 °
Period: 104.5 minutes
Semi major axis: 7350 km
RCS: 0.0155 m2 (small)
Launch date: May 10, 1999
Source: People's Republic of China (PRC)
Launch site: Taiyaun Space Center, China (TSC)

Note: This is SATELLITE DEBRIS
aabbcc
Your satellite tracking list
Your tracking list is empty




NASA's NSSDC Master Catalog

Two Line Element Set (TLE):
1 30810U 99025AUU 18018.17736692  .00001325  00000-0  11096-2 0  9996
2 30810  98.7154   9.2175 0237029 353.1155   6.6761 13.77700366544939
Source of the keplerian elements: AFSPC